owner,sensor,date,latitude,longitude,vertical_datum,wind_speed,wind_to_direction,wind_speed_of_gust,qcFlag 
WAVCIS,ioos:station:WAVCIS:CSI06:1,2008-05-01T00:00:00Z,28.8667,-90.4833,10.0,7.13,226.0,,'11111222,11111222,99999999' 
WAVCIS,ioos:station:WAVCIS:CSI06:1,2008-05-01T01:00:00Z,28.8667,-90.4833,10.0,7.82,217.0,,'11111222,11111222,99999999' 
WAVCIS,ioos:station:WAVCIS:CSI06:1,2008-05-01T02:00:00Z,28.8667,-90.4833,10.0,8.13,211.0,,'11111222,11111222,99999999' 
WAVCIS,ioos:station:WAVCIS:CSI06:1,2008-05-01T03:00:00Z,28.8667,-90.4833,10.0,9.95,212.0,,'11111222,11111222,99999999' 
WAVCIS,ioos:station:WAVCIS:CSI06:1,2008-05-01T04:00:00Z,28.8667,-90.4833,10.0,8.51,212.0,,'11111222,11111222,99999999' 
WAVCIS,ioos:station:WAVCIS:CSI06:1,2008-05-01T05:00:00Z,28.8667,-90.4833,10.0,9.66,213.0,,'11111222,11111222,99999999' 
WAVCIS,ioos:station:WAVCIS:CSI06:1,2008-05-01T06:00:00Z,28.8667,-90.4833,10.0,10.21,208.0,,'11111222,11111222,99999999' 
WAVCIS,ioos:station:WAVCIS:CSI06:1,2008-05-01T07:00:00Z,28.8667,-90.4833,10.0,11.36,204.0,,'11111222,11111222,99999999' 
WAVCIS,ioos:station:WAVCIS:CSI06:1,2008-05-01T08:00:00Z,28.8667,-90.4833,10.0,11.46,200.0,,'11111222,11111222,99999999' 
WAVCIS,ioos:station:WAVCIS:CSI06:1,2008-05-01T09:00:00Z,28.8667,-90.4833,10.0,11.43,199.0,,'11111222,11111222,99999999' 
WAVCIS,ioos:station:WAVCIS:CSI06:1,2008-05-01T10:00:00Z,28.8667,-90.4833,10.0,10.52,194.0,,'11111222,11111222,99999999' 
WAVCIS,ioos:station:WAVCIS:CSI06:1,2008-05-01T11:00:00Z,28.8667,-90.4833,10.0,10.09,192.0,,'11111222,11111222,99999999' 
WAVCIS,ioos:station:WAVCIS:CSI06:1,2008-05-01T12:00:00Z,28.8667,-90.4833,10.0,8.58,191.0,,'11111222,11111222,99999999' 
WAVCIS,ioos:station:WAVCIS:CSI06:1,2008-05-01T13:00:00Z,28.8667,-90.4833,10.0,10.5,180.0,,'11111222,11111222,99999999' 
WAVCIS,ioos:station:WAVCIS:CSI06:1,2008-05-01T14:00:00Z,28.8667,-90.4833,10.0,7.78,196.0,,'11111222,11111222,99999999' 
WAVCIS,ioos:station:WAVCIS:CSI06:1,2008-05-01T15:00:00Z,28.8667,-90.4833,10.0,7.48,200.0,,'11111222,11111222,99999999' 
WAVCIS,ioos:station:WAVCIS:CSI06:1,2008-05-01T16:00:00Z,28.8667,-90.4833,10.0,7.38,212.0,,'11111222,11111222,99999999' 
WAVCIS,ioos:station:WAVCIS:CSI06:1,2008-05-01T17:00:00Z,28.8667,-90.4833,10.0,8.68,212.0,,'11111222,11111222,99999999' 
WAVCIS,ioos:station:WAVCIS:CSI06:1,2008-05-01T18:00:00Z,28.8667,-90.4833,10.0,8.67,215.0,,'11111222,11111222,99999999' 
WAVCIS,ioos:station:WAVCIS:CSI06:1,2008-05-01T19:00:00Z,28.8667,-90.4833,10.0,8.39,220.0,,'11111222,11111222,99999999' 
WAVCIS,ioos:station:WAVCIS:CSI06:1,2008-05-01T20:00:00Z,28.8667,-90.4833,10.0,8.02,222.0,,'11111222,11111222,99999999' 
WAVCIS,ioos:station:WAVCIS:CSI06:1,2008-05-01T21:00:00Z,28.8667,-90.4833,10.0,8.1,225.0,,'11111222,11111222,99999999' 
WAVCIS,ioos:station:WAVCIS:CSI06:1,2008-05-01T22:00:00Z,28.8667,-90.4833,10.0,8.01,226.0,,'11111222,11111222,99999999' 
WAVCIS,ioos:station:WAVCIS:CSI06:1,2008-05-01T23:00:00Z,28.8667,-90.4833,10.0,7.51,227.0,,'11111222,11111222,99999999' 
WAVCIS,ioos:station:WAVCIS:CSI06:1,2008-05-02T00:00:00Z,28.8667,-90.4833,10.0,8.37,231.0,,'11111222,11111222,99999999' 
WAVCIS,ioos:station:WAVCIS:CSI06:1,2008-05-02T01:00:00Z,28.8667,-90.4833,10.0,7.73,225.0,,'11111222,11111222,99999999' 
WAVCIS,ioos:station:WAVCIS:CSI06:1,2008-05-02T02:00:00Z,28.8667,-90.4833,10.0,8.77,220.0,,'11111222,11111222,99999999' 
WAVCIS,ioos:station:WAVCIS:CSI06:1,2008-05-02T03:00:00Z,28.8667,-90.4833,10.0,10.96,217.0,,'11111222,11111222,99999999' 
WAVCIS,ioos:station:WAVCIS:CSI06:1,2008-05-02T04:00:00Z,28.8667,-90.4833,10.0,12.85,214.0,,'11111222,11111222,99999999' 
WAVCIS,ioos:station:WAVCIS:CSI06:1,2008-05-02T05:00:00Z,28.8667,-90.4833,10.0,11.09,215.0,,'11111222,11111222,99999999' 
WAVCIS,ioos:station:WAVCIS:CSI06:1,2008-05-02T06:00:00Z,28.8667,-90.4833,10.0,11.19,213.0,,'11111222,11111222,99999999' 
WAVCIS,ioos:station:WAVCIS:CSI06:1,2008-05-02T07:00:00Z,28.8667,-90.4833,10.0,12.57,214.0,,'11111222,11111222,99999999' 
WAVCIS,ioos:station:WAVCIS:CSI06:1,2008-05-02T08:00:00Z,28.8667,-90.4833,10.0,10.95,209.0,,'11111222,11111222,99999999' 
WAVCIS,ioos:station:WAVCIS:CSI06:1,2008-05-02T09:00:00Z,28.8667,-90.4833,10.0,10.62,203.0,,'11111222,11111222,99999999' 
WAVCIS,ioos:station:WAVCIS:CSI06:1,2008-05-02T10:00:00Z,28.8667,-90.4833,10.0,10.3,207.0,,'11111222,11111222,99999999' 
WAVCIS,ioos:station:WAVCIS:CSI06:1,2008-05-02T11:00:00Z,28.8667,-90.4833,10.0,9.11,211.0,,'11111222,11111222,99999999' 
WAVCIS,ioos:station:WAVCIS:CSI06:1,2008-05-02T12:00:00Z,28.8667,-90.4833,10.0,8.59,210.0,,'11111222,11111222,99999999' 
WAVCIS,ioos:station:WAVCIS:CSI06:1,2008-05-02T13:00:00Z,28.8667,-90.4833,10.0,9.23,206.0,,'11111222,11111222,99999999' 
WAVCIS,ioos:station:WAVCIS:CSI06:1,2008-05-02T14:00:00Z,28.8667,-90.4833,10.0,8.42,208.0,,'11111222,11111222,99999999' 
WAVCIS,ioos:station:WAVCIS:CSI06:1,2008-05-02T15:00:00Z,28.8667,-90.4833,10.0,8.62,204.0,,'11111222,11111222,99999999' 
WAVCIS,ioos:station:WAVCIS:CSI06:1,2008-05-02T16:00:00Z,28.8667,-90.4833,10.0,8.18,209.0,,'11111222,11111222,99999999' 
WAVCIS,ioos:station:WAVCIS:CSI06:1,2008-05-02T17:00:00Z,28.8667,-90.4833,10.0,8.88,210.0,,'11111222,11111222,99999999' 
WAVCIS,ioos:station:WAVCIS:CSI06:1,2008-05-02T18:00:00Z,28.8667,-90.4833,10.0,8.69,209.0,,'11111222,11111222,99999999' 
WAVCIS,ioos:station:WAVCIS:CSI06:1,2008-05-02T19:00:00Z,28.8667,-90.4833,10.0,8.96,214.0,,'11111222,11111222,99999999' 
WAVCIS,ioos:station:WAVCIS:CSI06:1,2008-05-02T20:00:00Z,28.8667,-90.4833,10.0,8.47,213.0,,'11111222,11111222,99999999' 
WAVCIS,ioos:station:WAVCIS:CSI06:1,2008-05-02T21:00:00Z,28.8667,-90.4833,10.0,8.05,220.0,,'11111222,11111222,99999999' 
WAVCIS,ioos:station:WAVCIS:CSI06:1,2008-05-02T22:00:00Z,28.8667,-90.4833,10.0,7.68,223.0,,'11111222,11111222,99999999' 
WAVCIS,ioos:station:WAVCIS:CSI06:1,2008-05-02T23:00:00Z,28.8667,-90.4833,10.0,9.94,222.0,,'11111222,11111222,99999999' 
WAVCIS,ioos:station:WAVCIS:CSI06:1,2008-05-03T00:00:00Z,28.8667,-90.4833,10.0,9.73,215.0,,'11111222,11111222,99999999' 
WAVCIS,ioos:station:WAVCIS:CSI06:1,2008-05-03T01:00:00Z,28.8667,-90.4833,10.0,9.88,215.0,,'11111222,11111222,99999999' 
WAVCIS,ioos:station:WAVCIS:CSI06:1,2008-05-03T02:00:00Z,28.8667,-90.4833,10.0,9.87,215.0,,'11111222,11111222,99999999' 
WAVCIS,ioos:station:WAVCIS:CSI06:1,2008-05-03T03:00:00Z,28.8667,-90.4833,10.0,9.72,219.0,,'11111222,11111222,99999999' 
WAVCIS,ioos:station:WAVCIS:CSI06:1,2008-05-03T04:00:00Z,28.8667,-90.4833,10.0,9.56,218.0,,'11111222,11111222,99999999' 
WAVCIS,ioos:station:WAVCIS:CSI06:1,2008-05-03T05:00:00Z,28.8667,-90.4833,10.0,8.9,213.0,,'11111222,11111222,99999999' 
WAVCIS,ioos:station:WAVCIS:CSI06:1,2008-05-03T06:00:00Z,28.8667,-90.4833,10.0,8.49,209.0,,'11111222,11111222,99999999' 
WAVCIS,ioos:station:WAVCIS:CSI06:1,2008-05-03T07:00:00Z,28.8667,-90.4833,10.0,7.74,204.0,,'11111222,11111222,99999999' 
WAVCIS,ioos:station:WAVCIS:CSI06:1,2008-05-03T08:00:00Z,28.8667,-90.4833,10.0,8.9,192.0,,'11111222,11111222,99999999' 
WAVCIS,ioos:station:WAVCIS:CSI06:1,2008-05-03T09:00:00Z,28.8667,-90.4833,10.0,7.36,184.0,,'11111222,11111222,99999999' 
WAVCIS,ioos:station:WAVCIS:CSI06:1,2008-05-03T10:00:00Z,28.8667,-90.4833,10.0,6.048,166.0,,'11111222,11111222,99999999' 
WAVCIS,ioos:station:WAVCIS:CSI06:1,2008-05-03T11:00:00Z,28.8667,-90.4833,10.0,5.453,162.0,,'11111222,11111222,99999999' 
WAVCIS,ioos:station:WAVCIS:CSI06:1,2008-05-03T12:00:00Z,28.8667,-90.4833,10.0,7.29,168.0,,'11111222,11111222,99999999' 
WAVCIS,ioos:station:WAVCIS:CSI06:1,2008-05-03T13:00:00Z,28.8667,-90.4833,10.0,7.61,167.0,,'11111222,11111222,99999999' 
WAVCIS,ioos:station:WAVCIS:CSI06:1,2008-05-03T14:00:00Z,28.8667,-90.4833,10.0,7.22,155.0,,'11111222,11111222,99999999' 
WAVCIS,ioos:station:WAVCIS:CSI06:1,2008-05-03T15:00:00Z,28.8667,-90.4833,10.0,6.653,142.0,,'11111222,11111222,99999999' 
WAVCIS,ioos:station:WAVCIS:CSI06:1,2008-05-03T16:00:00Z,28.8667,-90.4833,10.0,6.426,143.0,,'11111222,11111222,99999999' 
WAVCIS,ioos:station:WAVCIS:CSI06:1,2008-05-03T17:00:00Z,28.8667,-90.4833,10.0,17.56,21.0,,'11111222,11111222,99999999' 
WAVCIS,ioos:station:WAVCIS:CSI06:1,2008-05-03T18:00:00Z,28.8667,-90.4833,10.0,4.815,5.0,,'11111222,11111222,99999999' 
WAVCIS,ioos:station:WAVCIS:CSI06:1,2008-05-03T19:00:00Z,28.8667,-90.4833,10.0,2.034,305.0,,'11111222,11111222,99999999' 
WAVCIS,ioos:station:WAVCIS:CSI06:1,2008-05-03T20:00:00Z,28.8667,-90.4833,10.0,2.759,342.0,,'11111222,11111222,99999999' 
WAVCIS,ioos:station:WAVCIS:CSI06:1,2008-05-03T21:00:00Z,28.8667,-90.4833,10.0,2.117,318.0,,'11111222,11111222,99999999' 
WAVCIS,ioos:station:WAVCIS:CSI06:1,2008-05-03T22:00:00Z,28.8667,-90.4833,10.0,3.614,294.0,,'11111222,11111222,99999999' 
WAVCIS,ioos:station:WAVCIS:CSI06:1,2008-05-04T00:00:00Z,28.8667,-90.4833,10.0,4.96,243.0,,'11111222,11111222,99999999' 
WAVCIS,ioos:station:WAVCIS:CSI06:1,2008-05-04T01:00:00Z,28.8667,-90.4833,10.0,5.096,226.0,,'11111222,11111222,99999999' 
WAVCIS,ioos:station:WAVCIS:CSI06:1,2008-05-04T02:00:00Z,28.8667,-90.4833,10.0,3.575,204.0,,'11111222,11111222,99999999' 
WAVCIS,ioos:station:WAVCIS:CSI06:1,2008-05-04T03:00:00Z,28.8667,-90.4833,10.0,1.648,201.0,,'11111222,11111222,99999999' 
WAVCIS,ioos:station:WAVCIS:CSI06:1,2008-05-04T04:00:00Z,28.8667,-90.4833,10.0,2.937,207.0,,'11111222,11111222,99999999' 
WAVCIS,ioos:station:WAVCIS:CSI06:1,2008-05-04T05:00:00Z,28.8667,-90.4833,10.0,1.534,173.0,,'11111222,11111222,99999999' 
WAVCIS,ioos:station:WAVCIS:CSI06:1,2008-05-04T06:00:00Z,28.8667,-90.4833,10.0,0.957,124.0,,'11111222,11111222,99999999' 
WAVCIS,ioos:station:WAVCIS:CSI06:1,2008-05-04T07:00:00Z,28.8667,-90.4833,10.0,1.41,74.0,,'11111222,11111222,99999999' 
WAVCIS,ioos:station:WAVCIS:CSI06:1,2008-05-04T08:00:00Z,28.8667,-90.4833,10.0,0.352,88.0,,'11111222,11111222,99999999' 
WAVCIS,ioos:station:WAVCIS:CSI06:1,2008-05-04T09:00:00Z,28.8667,-90.4833,10.0,1.953,21.0,,'11111222,11111222,99999999' 
WAVCIS,ioos:station:WAVCIS:CSI06:1,2008-05-04T10:00:00Z,28.8667,-90.4833,10.0,3.225,335.0,,'11111222,11111222,99999999' 
WAVCIS,ioos:station:WAVCIS:CSI06:1,2008-05-04T11:00:00Z,28.8667,-90.4833,10.0,7.01,334.0,,'11111222,11111222,99999999' 
WAVCIS,ioos:station:WAVCIS:CSI06:1,2008-05-04T12:00:00Z,28.8667,-90.4833,10.0,7.08,324.0,,'11111222,11111222,99999999' 
WAVCIS,ioos:station:WAVCIS:CSI06:1,2008-05-04T13:00:00Z,28.8667,-90.4833,10.0,8.48,308.0,,'11111222,11111222,99999999' 
WAVCIS,ioos:station:WAVCIS:CSI06:1,2008-05-04T14:00:00Z,28.8667,-90.4833,10.0,9.48,302.0,,'11111222,11111222,99999999' 
WAVCIS,ioos:station:WAVCIS:CSI06:1,2008-05-04T15:00:00Z,28.8667,-90.4833,10.0,8.64,303.0,,'11111222,11111222,99999999' 
WAVCIS,ioos:station:WAVCIS:CSI06:1,2008-05-04T16:00:00Z,28.8667,-90.4833,10.0,7.53,297.0,,'11111222,11111222,99999999' 
WAVCIS,ioos:station:WAVCIS:CSI06:1,2008-05-04T17:00:00Z,28.8667,-90.4833,10.0,6.18,293.0,,'11111222,11111222,99999999' 
WAVCIS,ioos:station:WAVCIS:CSI06:1,2008-05-04T18:00:00Z,28.8667,-90.4833,10.0,5.147,292.0,,'11111222,11111222,99999999' 
WAVCIS,ioos:station:WAVCIS:CSI06:1,2008-05-04T19:00:00Z,28.8667,-90.4833,10.0,4.273,286.0,,'11111222,11111222,99999999' 
WAVCIS,ioos:station:WAVCIS:CSI06:1,2008-05-04T20:00:00Z,28.8667,-90.4833,10.0,3.412,279.0,,'11111222,11111222,99999999' 
WAVCIS,ioos:station:WAVCIS:CSI06:1,2008-05-04T21:00:00Z,28.8667,-90.4833,10.0,2.942,279.0,,'11111222,11111222,99999999' 
WAVCIS,ioos:station:WAVCIS:CSI06:1,2008-05-04T22:00:00Z,28.8667,-90.4833,10.0,2.88,284.0,,'11111222,11111222,99999999' 
WAVCIS,ioos:station:WAVCIS:CSI06:1,2008-05-04T23:00:00Z,28.8667,-90.4833,10.0,2.024,294.0,,'11111222,11111222,99999999' 
WAVCIS,ioos:station:WAVCIS:CSI06:1,2008-05-05T00:00:00Z,28.8667,-90.4833,10.0,1.76,285.0,,'11111222,11111222,99999999' 
WAVCIS,ioos:station:WAVCIS:CSI06:1,2008-05-05T01:00:00Z,28.8667,-90.4833,10.0,1.579,258.0,,'11111222,11111222,99999999' 
WAVCIS,ioos:station:WAVCIS:CSI06:1,2008-05-05T02:00:00Z,28.8667,-90.4833,10.0,2.144,245.0,,'11111222,11111222,99999999' 
WAVCIS,ioos:station:WAVCIS:CSI06:1,2008-05-05T03:00:00Z,28.8667,-90.4833,10.0,2.689,248.0,,'11111222,11111222,99999999' 
WAVCIS,ioos:station:WAVCIS:CSI06:1,2008-05-05T04:00:00Z,28.8667,-90.4833,10.0,1.892,253.0,,'11111222,11111222,99999999' 
WAVCIS,ioos:station:WAVCIS:CSI06:1,2008-05-05T05:00:00Z,28.8667,-90.4833,10.0,2.087,250.0,,'11111222,11111222,99999999' 
WAVCIS,ioos:station:WAVCIS:CSI06:1,2008-05-05T06:00:00Z,28.8667,-90.4833,10.0,1.337,236.0,,'11111222,11111222,99999999' 
WAVCIS,ioos:station:WAVCIS:CSI06:1,2008-05-05T07:00:00Z,28.8667,-90.4833,10.0,1.449,282.0,,'11111222,11111222,99999999' 
WAVCIS,ioos:station:WAVCIS:CSI06:1,2008-05-05T08:00:00Z,28.8667,-90.4833,10.0,1.427,273.0,,'11111222,11111222,99999999' 
WAVCIS,ioos:station:WAVCIS:CSI06:1,2008-05-05T09:00:00Z,28.8667,-90.4833,10.0,0.59,268.0,,'11111222,11111222,99999999' 
WAVCIS,ioos:station:WAVCIS:CSI06:1,2008-05-05T10:00:00Z,28.8667,-90.4833,10.0,1.59,348.0,,'11111222,11111222,99999999' 
WAVCIS,ioos:station:WAVCIS:CSI06:1,2008-05-05T11:00:00Z,28.8667,-90.4833,10.0,0.916,329.0,,'11111222,11111222,99999999' 
WAVCIS,ioos:station:WAVCIS:CSI06:1,2008-05-05T12:00:00Z,28.8667,-90.4833,10.0,1.31,328.0,,'11111222,11111222,99999999' 
WAVCIS,ioos:station:WAVCIS:CSI06:1,2008-05-05T13:00:00Z,28.8667,-90.4833,10.0,1.107,339.0,,'11111222,11111222,99999999' 
WAVCIS,ioos:station:WAVCIS:CSI06:1,2008-05-05T14:00:00Z,28.8667,-90.4833,10.0,5.672,291.0,,'11111222,11111222,99999999' 
WAVCIS,ioos:station:WAVCIS:CSI06:1,2008-05-05T15:00:00Z,28.8667,-90.4833,10.0,7.72,280.0,,'11111222,11111222,99999999' 
WAVCIS,ioos:station:WAVCIS:CSI06:1,2008-05-05T16:00:00Z,28.8667,-90.4833,10.0,8.01,280.0,,'11111222,11111222,99999999' 
WAVCIS,ioos:station:WAVCIS:CSI06:1,2008-05-05T17:00:00Z,28.8667,-90.4833,10.0,7.68,278.0,,'11111222,11111222,99999999' 
WAVCIS,ioos:station:WAVCIS:CSI06:1,2008-05-05T18:00:00Z,28.8667,-90.4833,10.0,6.271,288.0,,'11111222,11111222,99999999' 
WAVCIS,ioos:station:WAVCIS:CSI06:1,2008-05-05T19:00:00Z,28.8667,-90.4833,10.0,5.481,273.0,,'11111222,11111222,99999999' 
WAVCIS,ioos:station:WAVCIS:CSI06:1,2008-05-05T20:00:00Z,28.8667,-90.4833,10.0,4.086,257.0,,'11111222,11111222,99999999' 
WAVCIS,ioos:station:WAVCIS:CSI06:1,2008-05-05T21:00:00Z,28.8667,-90.4833,10.0,3.752,256.0,,'11111222,11111222,99999999' 
WAVCIS,ioos:station:WAVCIS:CSI06:1,2008-05-05T22:00:00Z,28.8667,-90.4833,10.0,2.822,272.0,,'11111222,11111222,99999999' 
WAVCIS,ioos:station:WAVCIS:CSI06:1,2008-05-05T23:00:00Z,28.8667,-90.4833,10.0,2.744,272.0,,'11111222,11111222,99999999' 
WAVCIS,ioos:station:WAVCIS:CSI06:1,2008-05-06T00:00:00Z,28.8667,-90.4833,10.0,2.97,255.0,,'11111222,11111222,99999999' 
WAVCIS,ioos:station:WAVCIS:CSI06:1,2008-05-06T01:00:00Z,28.8667,-90.4833,10.0,1.666,270.0,,'11111222,11111222,99999999' 
WAVCIS,ioos:station:WAVCIS:CSI06:1,2008-05-06T02:00:00Z,28.8667,-90.4833,10.0,0.882,253.0,,'11111222,11111222,99999999' 
WAVCIS,ioos:station:WAVCIS:CSI06:1,2008-05-06T03:00:00Z,28.8667,-90.4833,10.0,1.407,238.0,,'11111222,11111222,99999999' 
WAVCIS,ioos:station:WAVCIS:CSI06:1,2008-05-06T04:00:00Z,28.8667,-90.4833,10.0,1.938,270.0,,'11111222,11111222,99999999' 
WAVCIS,ioos:station:WAVCIS:CSI06:1,2008-05-06T05:00:00Z,28.8667,-90.4833,10.0,1.013,258.0,,'11111222,11111222,99999999' 
WAVCIS,ioos:station:WAVCIS:CSI06:1,2008-05-06T06:00:00Z,28.8667,-90.4833,10.0,0.829,264.0,,'11111222,11111222,99999999' 
WAVCIS,ioos:station:WAVCIS:CSI06:1,2008-05-06T07:00:00Z,28.8667,-90.4833,10.0,0.827,245.0,,'11111222,11111222,99999999' 
WAVCIS,ioos:station:WAVCIS:CSI06:1,2008-05-06T08:00:00Z,28.8667,-90.4833,10.0,1.836,260.0,,'11111222,11111222,99999999' 
WAVCIS,ioos:station:WAVCIS:CSI06:1,2008-05-06T09:00:00Z,28.8667,-90.4833,10.0,2.211,279.0,,'11111222,11111222,99999999' 
WAVCIS,ioos:station:WAVCIS:CSI06:1,2008-05-06T10:00:00Z,28.8667,-90.4833,10.0,4.89,306.0,,'11111222,11111222,99999999' 
WAVCIS,ioos:station:WAVCIS:CSI06:1,2008-05-06T11:00:00Z,28.8667,-90.4833,10.0,5.299,279.0,,'11111222,11111222,99999999' 
WAVCIS,ioos:station:WAVCIS:CSI06:1,2008-05-06T12:00:00Z,28.8667,-90.4833,10.0,5.383,283.0,,'11111222,11111222,99999999' 
WAVCIS,ioos:station:WAVCIS:CSI06:1,2008-05-06T13:00:00Z,28.8667,-90.4833,10.0,6.096,276.0,,'11111222,11111222,99999999' 
WAVCIS,ioos:station:WAVCIS:CSI06:1,2008-05-06T14:00:00Z,28.8667,-90.4833,10.0,6.318,283.0,,'11111222,11111222,99999999' 
WAVCIS,ioos:station:WAVCIS:CSI06:1,2008-05-06T15:00:00Z,28.8667,-90.4833,10.0,4.771,260.0,,'11111222,11111222,99999999' 
WAVCIS,ioos:station:WAVCIS:CSI06:1,2008-05-06T16:00:00Z,28.8667,-90.4833,10.0,4.91,261.0,,'11111222,11111222,99999999' 
WAVCIS,ioos:station:WAVCIS:CSI06:1,2008-05-06T17:00:00Z,28.8667,-90.4833,10.0,5.486,252.0,,'11111222,11111222,99999999' 
WAVCIS,ioos:station:WAVCIS:CSI06:1,2008-05-06T18:00:00Z,28.8667,-90.4833,10.0,4.405,261.0,,'11111222,11111222,99999999' 
WAVCIS,ioos:station:WAVCIS:CSI06:1,2008-05-06T19:00:00Z,28.8667,-90.4833,10.0,3.409,252.0,,'11111222,11111222,99999999' 
WAVCIS,ioos:station:WAVCIS:CSI06:1,2008-05-06T20:00:00Z,28.8667,-90.4833,10.0,2.857,242.0,,'11111222,11111222,99999999' 
WAVCIS,ioos:station:WAVCIS:CSI06:1,2008-05-06T21:00:00Z,28.8667,-90.4833,10.0,3.425,241.0,,'11111222,11111222,99999999' 
WAVCIS,ioos:station:WAVCIS:CSI06:1,2008-05-06T22:00:00Z,28.8667,-90.4833,10.0,3.276,226.0,,'11111222,11111222,99999999' 
WAVCIS,ioos:station:WAVCIS:CSI06:1,2008-05-06T23:00:00Z,28.8667,-90.4833,10.0,4.072,225.0,,'11111222,11111222,99999999' 
WAVCIS,ioos:station:WAVCIS:CSI06:1,2008-05-07T00:00:00Z,28.8667,-90.4833,10.0,4.661,215.0,,'11111222,11111222,99999999' 
WAVCIS,ioos:station:WAVCIS:CSI06:1,2008-05-07T01:00:00Z,28.8667,-90.4833,10.0,5.199,220.0,,'11111222,11111222,99999999' 
WAVCIS,ioos:station:WAVCIS:CSI06:1,2008-05-07T02:00:00Z,28.8667,-90.4833,10.0,5.691,205.0,,'11111222,11111222,99999999' 
WAVCIS,ioos:station:WAVCIS:CSI06:1,2008-05-07T03:00:00Z,28.8667,-90.4833,10.0,4.251,177.0,,'11111222,11111222,99999999' 
WAVCIS,ioos:station:WAVCIS:CSI06:1,2008-05-07T04:00:00Z,28.8667,-90.4833,10.0,4.103,193.0,,'11111222,11111222,99999999' 
WAVCIS,ioos:station:WAVCIS:CSI06:1,2008-05-07T05:00:00Z,28.8667,-90.4833,10.0,4.865,197.0,,'11111222,11111222,99999999' 
WAVCIS,ioos:station:WAVCIS:CSI06:1,2008-05-07T06:00:00Z,28.8667,-90.4833,10.0,5.484,195.0,,'11111222,11111222,99999999' 
WAVCIS,ioos:station:WAVCIS:CSI06:1,2008-05-07T07:00:00Z,28.8667,-90.4833,10.0,4.613,203.0,,'11111222,11111222,99999999' 
WAVCIS,ioos:station:WAVCIS:CSI06:1,2008-05-07T08:00:00Z,28.8667,-90.4833,10.0,5.533,189.0,,'11111222,11111222,99999999' 
WAVCIS,ioos:station:WAVCIS:CSI06:1,2008-05-07T09:00:00Z,28.8667,-90.4833,10.0,6.168,203.0,,'11111222,11111222,99999999' 
WAVCIS,ioos:station:WAVCIS:CSI06:1,2008-05-07T10:00:00Z,28.8667,-90.4833,10.0,6.228,210.0,,'11111222,11111222,99999999' 
WAVCIS,ioos:station:WAVCIS:CSI06:1,2008-05-07T11:00:00Z,28.8667,-90.4833,10.0,6.491,229.0,,'11111222,11111222,99999999' 
WAVCIS,ioos:station:WAVCIS:CSI06:1,2008-05-07T12:00:00Z,28.8667,-90.4833,10.0,6.977,231.0,,'11111222,11111222,99999999' 
WAVCIS,ioos:station:WAVCIS:CSI06:1,2008-05-07T13:00:00Z,28.8667,-90.4833,10.0,7.62,227.0,,'11111222,11111222,99999999' 
WAVCIS,ioos:station:WAVCIS:CSI06:1,2008-05-07T14:00:00Z,28.8667,-90.4833,10.0,7.62,220.0,,'11111222,11111222,99999999' 
WAVCIS,ioos:station:WAVCIS:CSI06:1,2008-05-07T15:00:00Z,28.8667,-90.4833,10.0,8.81,215.0,,'11111222,11111222,99999999' 
WAVCIS,ioos:station:WAVCIS:CSI06:1,2008-05-07T16:00:00Z,28.8667,-90.4833,10.0,9.87,214.0,,'11111222,11111222,99999999' 
WAVCIS,ioos:station:WAVCIS:CSI06:1,2008-05-07T17:00:00Z,28.8667,-90.4833,10.0,10.23,206.0,,'11111222,11111222,99999999' 
WAVCIS,ioos:station:WAVCIS:CSI06:1,2008-05-07T18:00:00Z,28.8667,-90.4833,10.0,10.05,208.0,,'11111222,11111222,99999999' 
WAVCIS,ioos:station:WAVCIS:CSI06:1,2008-05-07T19:00:00Z,28.8667,-90.4833,10.0,10.11,208.0,,'11111222,11111222,99999999' 
WAVCIS,ioos:station:WAVCIS:CSI06:1,2008-05-07T21:00:00Z,28.8667,-90.4833,10.0,8.38,196.0,,'11111222,11111222,99999999' 
WAVCIS,ioos:station:WAVCIS:CSI06:1,2008-05-07T22:00:00Z,28.8667,-90.4833,10.0,8.54,195.0,,'11111222,11111222,99999999' 
WAVCIS,ioos:station:WAVCIS:CSI06:1,2008-05-07T23:00:00Z,28.8667,-90.4833,10.0,7.43,185.0,,'11111222,11111222,99999999' 
WAVCIS,ioos:station:WAVCIS:CSI06:1,2008-05-08T00:00:00Z,28.8667,-90.4833,10.0,7.64,188.0,,'11111222,11111222,99999999' 
WAVCIS,ioos:station:WAVCIS:CSI06:1,2008-05-08T01:00:00Z,28.8667,-90.4833,10.0,9.58,202.0,,'11111222,11111222,99999999' 
WAVCIS,ioos:station:WAVCIS:CSI06:1,2008-05-08T02:00:00Z,28.8667,-90.4833,10.0,10.04,193.0,,'11111222,11111222,99999999' 
WAVCIS,ioos:station:WAVCIS:CSI06:1,2008-05-08T03:00:00Z,28.8667,-90.4833,10.0,10.08,191.0,,'11111222,11111222,99999999' 
WAVCIS,ioos:station:WAVCIS:CSI06:1,2008-05-08T04:00:00Z,28.8667,-90.4833,10.0,10.9,191.0,,'11111222,11111222,99999999' 
WAVCIS,ioos:station:WAVCIS:CSI06:1,2008-05-08T05:00:00Z,28.8667,-90.4833,10.0,8.68,174.0,,'11111222,11111222,99999999' 
WAVCIS,ioos:station:WAVCIS:CSI06:1,2008-05-08T06:00:00Z,28.8667,-90.4833,10.0,7.56,165.0,,'11111222,11111222,99999999' 
WAVCIS,ioos:station:WAVCIS:CSI06:1,2008-05-08T07:00:00Z,28.8667,-90.4833,10.0,7.66,158.0,,'11111222,11111222,99999999' 
WAVCIS,ioos:station:WAVCIS:CSI06:1,2008-05-08T08:00:00Z,28.8667,-90.4833,10.0,7.01,152.0,,'11111222,11111222,99999999' 
WAVCIS,ioos:station:WAVCIS:CSI06:1,2008-05-08T09:00:00Z,28.8667,-90.4833,10.0,6.091,147.0,,'11111222,11111222,99999999' 
WAVCIS,ioos:station:WAVCIS:CSI06:1,2008-05-08T10:00:00Z,28.8667,-90.4833,10.0,6.31,158.0,,'11111222,11111222,99999999' 
WAVCIS,ioos:station:WAVCIS:CSI06:1,2008-05-08T11:00:00Z,28.8667,-90.4833,10.0,6.763,148.0,,'11111222,11111222,99999999' 
WAVCIS,ioos:station:WAVCIS:CSI06:1,2008-05-08T12:00:00Z,28.8667,-90.4833,10.0,8.47,167.0,,'11111222,11111222,99999999' 
WAVCIS,ioos:station:WAVCIS:CSI06:1,2008-05-08T13:00:00Z,28.8667,-90.4833,10.0,8.85,161.0,,'11111222,11111222,99999999' 
WAVCIS,ioos:station:WAVCIS:CSI06:1,2008-05-08T14:00:00Z,28.8667,-90.4833,10.0,10.11,171.0,,'11111222,11111222,99999999' 
WAVCIS,ioos:station:WAVCIS:CSI06:1,2008-05-08T15:00:00Z,28.8667,-90.4833,10.0,10.58,164.0,,'11111222,11111222,99999999' 
WAVCIS,ioos:station:WAVCIS:CSI06:1,2008-05-08T16:00:00Z,28.8667,-90.4833,10.0,10.81,168.0,,'11111222,11111222,99999999' 
WAVCIS,ioos:station:WAVCIS:CSI06:1,2008-05-08T17:00:00Z,28.8667,-90.4833,10.0,10.39,158.0,,'11111222,11111222,99999999' 
WAVCIS,ioos:station:WAVCIS:CSI06:1,2008-05-08T18:00:00Z,28.8667,-90.4833,10.0,9.67,150.0,,'11111222,11111222,99999999' 
WAVCIS,ioos:station:WAVCIS:CSI06:1,2008-05-08T19:00:00Z,28.8667,-90.4833,10.0,7.95,129.0,,'11111222,11111222,99999999' 
WAVCIS,ioos:station:WAVCIS:CSI06:1,2008-05-08T20:00:00Z,28.8667,-90.4833,10.0,7.95,122.0,,'11111222,11111222,99999999' 
WAVCIS,ioos:station:WAVCIS:CSI06:1,2008-05-08T21:00:00Z,28.8667,-90.4833,10.0,7.71,106.0,,'11111222,11111222,99999999' 
WAVCIS,ioos:station:WAVCIS:CSI06:1,2008-05-08T22:00:00Z,28.8667,-90.4833,10.0,8.01,105.0,,'11111222,11111222,99999999' 
WAVCIS,ioos:station:WAVCIS:CSI06:1,2008-05-08T23:00:00Z,28.8667,-90.4833,10.0,8.71,109.0,,'11111222,11111222,99999999' 
WAVCIS,ioos:station:WAVCIS:CSI06:1,2008-05-09T00:00:00Z,28.8667,-90.4833,10.0,8.6,112.0,,'11111222,11111222,99999999' 
WAVCIS,ioos:station:WAVCIS:CSI06:1,2008-05-09T01:00:00Z,28.8667,-90.4833,10.0,7.82,123.0,,'11111222,11111222,99999999' 
WAVCIS,ioos:station:WAVCIS:CSI06:1,2008-05-09T02:00:00Z,28.8667,-90.4833,10.0,7.77,117.0,,'11111222,11111222,99999999' 
WAVCIS,ioos:station:WAVCIS:CSI06:1,2008-05-09T03:00:00Z,28.8667,-90.4833,10.0,6.816,117.0,,'11111222,11111222,99999999' 
WAVCIS,ioos:station:WAVCIS:CSI06:1,2008-05-09T04:00:00Z,28.8667,-90.4833,10.0,6.174,118.0,,'11111222,11111222,99999999' 
WAVCIS,ioos:station:WAVCIS:CSI06:1,2008-05-09T05:00:00Z,28.8667,-90.4833,10.0,7.24,120.0,,'11111222,11111222,99999999' 
WAVCIS,ioos:station:WAVCIS:CSI06:1,2008-05-09T06:00:00Z,28.8667,-90.4833,10.0,6.59,123.0,,'11111222,11111222,99999999' 
WAVCIS,ioos:station:WAVCIS:CSI06:1,2008-05-09T07:00:00Z,28.8667,-90.4833,10.0,6.925,127.0,,'11111222,11111222,99999999' 